Torna al catalogo

YAOGAN-43 03C

AttivoMilitareVLEO
NORAD 61619·PAYLOAD·🇨🇳 China

Lanciato Oct 23, 2024 da Xichang Satellite Launch Center

Loading…

Prossimi Passaggi (prossime 24 ore)

TLE

AggiornatoSource: Space-Track

Epoca: Sep 14, 2026, 14:21 UTC

1 61619U 24190C   26257.59826992  .00002124  00000-0  89626-4 0  9995
2 61619  34.9973 355.7455 0005582  68.0936 292.0372 15.23016154105465

Traccia YAOGAN-43 03C in tempo reale con AllMySat

Download on the App Store